Location: Madrid
(40.4000°N, 3.6830°W)
Time: 13:15:30
(UTC+02:00)

ISS - Pass Details

Date: 29 May 2020
Orbit: 417 x 419 km, 51.6° (Epoch: 31 May)

Event Time Altitude Azimuth Distance (km) Brightness Sun altitude
Rises 00:44:55 0° 304° (NW) 2,366 0.9 -24.7°
Reaches altitude 10° 00:47:02 10° 301° (WNW) 1,500 -0.3 -24.9°
Enters shadow 00:48:34 24° 294° (WNW) 904 -1.7 -25.0°
